www.pogodaiklimat.ru
Время
(UTC), дата
04 11.11
05 11.11
06 11.11
07 11.11
08 11.11
09 11.11
10 11.11
11 11.11
12 11.11
13 11.11
14 11.11
15 11.11
16 11.11
17 11.11
18 11.11
19 11.11
20 11.11
21 11.11
22 11.11
23 11.11
00 12.11
01 12.11
02 12.11
03 12.11
04 12.11
05 12.11
06 12.11
07 12.11
08 12.11
09 12.11
10 12.11
11 12.11
12 12.11
13 12.11
14 12.11
15 12.11
16 12.11
17 12.11
18 12.11
19 12.11
20 12.11
21 12.11
22 12.11
23 12.11
00 13.11
01 13.11
02 13.11
03 13.11
04 13.11
05 13.11
06 13.11
07 13.11
08 13.11
09 13.11
10 13.11
11 13.11
12 13.11
13 13.11
14 13.11
15 13.11
16 13.11
17 13.11
18 13.11
19 13.11
21 13.11
00 14.11
01 14.11
02 14.11
03 14.11
04 14.11
05 14.11
06 14.11
07 14.11
08 14.11
09 14.11
10 14.11
11 14.11
12 14.11
13 14.11
14 14.11
15 14.11
16 14.11
17 14.11
18 14.11
19 14.11
20 14.11
21 14.11
22 14.11
23 14.11
00 15.11
01 15.11
02 15.11
03 15.11
04 15.11
05 15.11
06 15.11
07 15.11
08 15.11
09 15.11
10 15.11
11 15.11
12 15.11
13 15.11
14 15.11
15 15.11
16 15.11
17 15.11
18 15.11
19 15.11
20 15.11
21 15.11
22 15.11
23 15.11
00 16.11
01 16.11
02 16.11
03 16.11
04 16.11
05 16.11
06 16.11
07 16.11
08 16.11
09 16.11
10 16.11
11 16.11
12 16.11
13 16.11
14 16.11
15 16.11
16 16.11
17 16.11
18 16.11
19 16.11
20 16.11
21 16.11
22 16.11
23 16.11
00 17.11
01 17.11
02 17.11
03 17.11
04 17.11
05 17.11
06 17.11
07 17.11
08 17.11
09 17.11
10 17.11
11 17.11
12 17.11
13 17.11
14 17.11
15 17.11
16 17.11
17 17.11
18 17.11
19 17.11
20 17.11
21 17.11
22 17.11
23 17.11
00 18.11
01 18.11
02 18.11
03 18.11
04 18.11
Ветер
(напр.,м/с)
Видим. Явления Облачность Т
(С)
Тd
(С)
f
(%)
Тe
(С)
Тes
(С)
Комфортность P
(гПа)
Po
(гПа)
Тmin
(С)
Tmax
(С)
R
(мм)
R24
(мм)
S
(см)
В 5
{7}
50 км 10/10 1000 м
[]
-5.2 -10.2 68 -12 -12 очень
холодно
1010.9 1008.7
В 5
{7}
50 км 10/10 1000 м
[]
-5.2 -10.4 67 -12 -12 прохладно 1010.3 1008.2
В 4
{7}
50 км 10/10 1000 м
[]
-4.8 -10.5 64 -11 -11 очень
холодно
1009.5 1007.3 -5.4 0.1 0.1
В 4
{6}
50 км 10/10 1000 м
[]
-4.6 -10.2 65 -11 -11 прохладно 1009.2 1007.0
В 5
{6}
50 км 10/10 1500 м
[]
-4.3 -9.9 65 -11 -11 по сезону 1008.9 1006.7
В 4
{6}
50 км 10/0 2000 м
[]
-3.3 -10.1 59 -9 -9 очень
холодно
1008.8 1006.6
В 5
{7}
50 км 10/0
[]
-2.0 -10.7 51 -8 -8 прохладно 1008.5 1006.3
В 4
{9}
45 км ясно -2.3 -11.4 50 -8 -7 по сезону 1008.3 1006.2
В 4
{9}
50 км 6/0
[]
-3.2 -11.5 53 -9 -9 очень
холодно
1007.5 1005.4
В 5
{7}
50 км 10/0 2000 м
[]
-3.5 -11.5 54 -10 -10 холодно 1006.8 1004.6
В 3
{6}
45 км 10/0 2000 м
[]
-3.0 -10.5 56 -8 -8 по сезону 1006.4 1004.3
В 3
{6}
50 км 10/0 2000 м
[]
-2.3 -8.9 61 -7 -7 холодно 1006.0 1003.8
В 4
{6}
50 км 10/0
[]
-2.3 -8.7 61 -8 -8 прохладно 1005.7 1003.6
В 4
{7}
50 км 10/0
[]
-1.9 -9.0 58 -7 -7 по сезону 1005.8 1003.6
В 4
{7}
50 км 10/0
[]
-2.4 -8.9 61 -8 -8 холодно 1005.2 1003.1 -4.8 -1.5
СВ 2
{6}
40 км 10/0
[]
-2.5 -8.8 62 -6 -6 по сезону 1005.2 1003.1
В 3
{6}
50 км 10/0 2000 м
[]
-1.4 -8.6 58 -6 -6 по сезону 1004.9 1002.7
В 2
{3}
50 км 10/0 2000 м
[]
-1.4 -8.3 59 -5 -5 прохладно 1004.7 1002.6
В 2
{5}
50 км 3/3 1500 м
[]
-3.0 -8.8 64 -7 -7 по сезону 1004.6 1002.4
В 2
{4}
50 км ясно -3.7 -8.7 68 -8 -8 по сезону 1004.5 1002.3
В 2
{6}
50 км ясно -4.7 -9.1 71 -9 -9 холодно 1004.4 1002.2
штиль 0
{2}
50 км ясно -6.4 -9.2 80 -7 -7 по сезону 1004.4 1002.2
В 2
{4}
50 км ясно -8.2 -10.2 85 -13 -13 по сезону 1004.4 1002.2
В 3
{4}
50 км ясно -7.1 -8.7 88 -13 -13 очень
холодно
1004.3 1002.1
В 3
{4}
50 км 8/0 2000 м
[]
-8.2 -9.6 90 -14 -14 очень
холодно
1003.9 1001.7
В 3
{4}
50 км 10/0 2000 м
[]
-6.7 -8.4 88 -12 -12 по сезону 1003.3 1001.1
В 2
{5}
50 км 10/0 2000 м
[]
-5.7 -7.9 84 -10 -10 очень
холодно
1003.0 1000.8 -8.9 -1.0
В 2
{4}
50 км 9/0
[]
-6.2 -8.0 87 -11 -11 прохладно 1002.5 1000.3
В 2
{4}
45 км 1/0
[]
-6.4 -8.1 88 -11 -11 по сезону 1002.1 999.9
В 2
{4}
35 км 1/0
[]
-5.3 -7.1 87 -10 -10 очень
холодно
1001.7 999.6
В 2
{5}
50 км 4/0
[]
+3.5 -2.4 65 +1 +1 тепло 1001.2 999.1
В 3
{6}
50 км 10/0
[]
+5.2 -2.4 58 +2 +2 тепло 1001.2 999.1
ЮВ 4
{9}
50 км 10/10 1000 м
[]
+5.8 -2.4 56 +2 +2 по сезону 1001.0 998.9
В 6
{9}
50 км 10/0
[]
+5.5 -2.4 57 +1 +1 тепло 1000.6 998.5
В 4
{9}
50 км 10/0
[]
+5.1 -2.5 58 +2 +2 тепло 1000.0 997.9
В 6
{9}
50 км 10/0
[]
+5.2 -2.2 59 +1 +1 по сезону 999.2 997.1
ЮВ 5
{11}
50 км 5/0
[]
+5.3 -2.5 57 +1 +1 тепло 998.7 996.6
В 6
{12}
45 км 9/9 1000 м
[]
+4.1 -0.9 70 -1 -1 тепло 998.8 996.7
В 7
{12}
50 км 10/10 1500 м
[]
+3.9 -1.1 70 -2 -2 по сезону 998.2 996.1 -6.5 +5.9
В 4
{9}
50 км 10/0 2000 м
[]
+4.2 -1.4 67 0 0 тепло 997.4 995.3
В 5
{8}
50 км 10/0 2000 м
[]
+4.1 -2.1 64 -1 -1 тепло 996.6 994.5
ЮВ 5
{7}
50 км ясно +4.4 -2.2 62 0 0 по сезону 995.8 993.7
ЮВ 6
{12}
50 км 10/0 2000 м
[]
+4.9 -2.1 60 0 0 тепло 995.0 992.9
СВ 3
{8}
50 км 10/0 2000 м
[]
+4.9 -2.2 60 +2 +2 тепло 995.2 993.1
ЮВ 4
{12}
50 км ясно +4.9 -2.3 60 +1 +1 по сезону 995.0 992.9
ЮВ 3
{6}
50 км ясно +4.7 -2.7 59 +2 +2 тепло 995.2 993.1
С 3
{5}
50 км ясно +4.0 -2.8 61 +1 +1 тепло 995.5 993.4
В 2
{5}
50 км ясно +4.2 -2.5 62 +2 +2 по сезону 995.7 993.6
СВ 3
{4}
50 км 1/0
[]
+3.1 -2.3 68 -1 -1 тепло 995.8 993.7
В 1
{3}
50 км ясно +3.7 -2.2 65 +3 +3 тепло 995.9 993.8
СВ 2
{6}
50 км ясно +0.4 -2.9 78 -3 -3 по сезону 995.9 993.8 +0.1 +5.3
В 2
{4}
50 км ясно -0.4 -3.1 82 -4 -4 по сезону 996.3 994.2
СВ 2
{4}
50 км 5/0
[]
0.0 -2.9 81 -4 -4 тепло 997.0 994.9
В 2
{3}
50 км 5/0
[]
+0.9 -2.7 77 -2 -2 по сезону 997.2 995.1
В 2
{4}
45 км 6/0
[]
+5.3 -2.2 58 +3 +3 тепло 997.1 995.1
СВ 2
{4}
50 км ясно +6.0 -2.2 56 +4 +4 тепло 997.4 995.4
В 2
{4}
50 км ясно +5.5 -2.3 57 +3 +4 по сезону 997.4 995.3
Ю 3
{5}
50 км ясно +6.3 -1.9 56 +4 +4 тепло 997.2 995.1
ЮВ 3
{7}
50 км ясно +5.6 -1.8 59 +3 +3 тепло 997.4 995.3
Ю 4
{7}
50 км ясно +4.6 -1.8 63 +1 +1 по сезону 997.5 995.4
ЮВ 2
{10}
50 км ясно +4.3 -1.8 64 +2 +2 тепло 997.5 995.4
ЮВ 2
{7}
50 км ясно +4.6 -1.9 63 +2 +2 тепло 998.2 996.1
В 2
{10}
50 км ясно +3.8 -2.4 64 +1 +1 по сезону 998.8 996.7 -1.8 +7.0
В 2
{3}
50 км ясно +1.8 -2.9 71 -1 -1 по сезону 999.4 997.2
ЮВ 1
{2}
50 км ясно -1.8 -3.8 86 -4 -4 по сезону 1000.4 998.3
СВ 1
{4}
30 км ясно -3.8 -4.8 93 -6 -6 прохладно 1001.6 999.5
В 2
{3}
50 км ясно -4.3 -4.8 96 -9 -9 прохладно 1002.1 999.9
В 3
{3}
50 км ясно -3.8 -4.8 93 -9 -9 по сезону 1002.7 1000.6
В 2
{3}
50 км ясно -2.7 -3.9 91 -7 -7 прохладно 1003.2 1001.0
В 3
{3}
50 км ясно -3.1 -4.2 92 -8 -8 по сезону 1003.6 1001.5
В 2
{3}
50 км ясно -2.5 -4.0 89 -7 -7 по сезону 1004.1 1002.0
В 3
{4}
50 км ясно -2.7 -4.4 88 -8 -8 холодно 1004.6 1002.5 -4.6 +3.8
В 3
{4}
50 км ясно -2.9 -4.5 89 -8 -8 по сезону 1005.3 1003.1
В 2
{3}
50 км ясно -4.0 -5.5 89 -8 -8 по сезону 1006.3 1004.2
В 2
{4}
45 км ясно -2.7 -5.0 84 -7 -7 холодно 1006.8 1004.6
ЮВ 3
{5}
50 км ясно -1.6 -4.4 81 -6 -6 по сезону 1007.2 1005.1
ЮВ 2
{4}
40 км ясно -0.4 -4.0 77 -4 -4 тепло 1007.7 1005.5
В 2
{5}
30 км ясно -0.5 -3.9 78 -4 -4 прохладно 1008.2 1006.0
В 3
{4}
50 км ясно -0.8 -4.4 77 -5 -5 по сезону 1008.7 1006.5
В 2
{5}
50 км ясно -2.4 -5.2 81 -6 -6 по сезону 1009.2 1007.1
В 2
{3}
50 км ясно -3.3 -5.8 83 -7 -7 холодно 1010.1 1007.9
В 2
{4}
50 км ясно -4.1 -5.4 91 -8 -8 по сезону 1010.8 1008.6
В 3
{4}
50 км ясно -5.5 -7.2 88 -11 -11 по сезону 1011.6 1009.4
ЮВ 3
{5}
50 км ясно -5.2 -7.4 84 -11 -11 очень
холодно
1012.5 1010.3 -5.9 -0.3
В 4
{6}
50 км ясно -5.0 -6.5 89 -11 -11 прохладно 1013.2 1011.0
ЮВ 4
{7}
50 км ясно -4.9 -6.6 88 -11 -11 по сезону 1014.0 1011.8
В 4
{6}
50 км ясно -5.4 -7.4 86 -12 -12 очень
холодно
1014.7 1012.5
ЮВ 3
{5}
50 км ясно -6.4 -8.1 88 -12 -12 холодно 1015.7 1013.4
В 4
{5}
50 км ясно -5.8 -7.8 86 -12 -12 по сезону 1016.5 1014.3
ЮВ 3
{6}
50 км ясно -6.0 -8.0 86 -12 -12 очень
холодно
1017.4 1015.2
В 5
{6}
50 км ясно -6.1 -8.2 85 -13 -13 холодно 1018.4 1016.2
ЮВ 4
{6}
50 км 10/10 1000 м
[]
-5.7 -7.8 85 -12 -12 по сезону 1018.8 1016.5
ЮВ 4
{6}
50 км 10/10 1000 м
[]
-5.7 -8.2 82 -12 -12 очень
холодно
1019.0 1016.8
ЮВ 4
{6}
50 км ясно -5.5 -8.2 81 -12 -12 холодно 1019.4 1017.2
ЮВ 3
{6}
50 км ясно -6.0 -8.5 82 -12 -12 по сезону 1020.1 1017.9
В 3
{6}
50 км 4/4 1500 м
[]
-5.9 -8.3 83 -11 -11 очень
холодно
1020.7 1018.4 -6.5 -4.4
ЮВ 4
{7}
50 км 1/1 1000 м
[]
-6.1 -8.5 83 -13 -13 холодно 1021.4 1019.2
ЮВ 5
{8}
50 км 4/4 1500 м
[]
-5.4 -7.8 83 -13 -13 по сезону 1021.9 1019.7
В 4
{7}
50 км 10/10 1500 м
[]
-3.8 -7.0 78 -10 -10 очень
холодно
1022.4 1020.2
ЮВ 4
{6}
45 км 10/10 1500 м
[]
-2.9 -6.4 77 -9 -9 прохладно 1022.6 1020.4
В 3
{5}
50 км 10/10 1000 м
[]
-1.5 -5.6 74 -6 -6 по сезону 1022.6 1020.4
В 3
{8}
45 км 10/10 1000 м
[]
-0.6 -5.1 72 -5 -5 прохладно 1022.8 1020.6
В 3
{4}
40 км 10/10 1000 м
[]
-0.3 -5.0 71 -5 -5 по сезону 1022.8 1020.6
В 4
{5}
45 км ясно -2.5 -5.8 78 -8 -8 по сезону 1022.8 1020.6
В 3
{6}
50 км 1/0
[]
-2.9 -6.2 78 -8 -8 холодно 1023.1 1020.9
В 2
{5}
50 км ясно -4.1 -6.6 83 -8 -8 по сезону 1023.4 1021.2
В 3
{5}
50 км 5/5 1000 м
[]
-4.3 -6.5 85 -10 -10 по сезону 1023.7 1021.5
В 3
{6}
50 км 3/3 1000 м
[]
-4.5 -6.9 83 -10 -10 очень
холодно
1023.6 1021.4 -6.9 +0.1
ЮВ 3
{5}
50 км 9/9 1000 м
[]
-3.9 -6.3 83 -9 -9 прохладно 1023.4 1021.2
ЮВ 3
{5}
50 км ясно -4.2 -6.8 82 -10 -10 по сезону 1023.3 1021.1
ЮВ 3
{6}
50 км ясно -4.4 -7.0 82 -10 -10 очень
холодно
1022.9 1020.7
В 4
{5}
50 км ясно -5.5 -8.0 83 -12 -12 холодно 1022.7 1020.4
В 3
{5}
50 км 6/0
[]
-5.9 -8.0 85 -11 -11 по сезону 1022.2 1020.0
В 3
{6}
50 км 1/0
[]
-5.7 -8.0 84 -11 -11 очень
холодно
1021.4 1019.2
В 3
{4}
50 км 8/0
[]
-5.5 -7.8 84 -11 -11 прохладно 1020.9 1018.7
В 3
{4}
50 км 3/0
[]
-5.0 -7.6 82 -10 -10 по сезону 1020.2 1018.0
В 3
{5}
50 км 3/0
[]
-4.7 -7.5 81 -10 -10 холодно 1019.7 1017.5
В 4
{5}
50 км 6/0
[]
-5.0 -7.5 83 -11 -11 прохладно 1018.7 1016.5
В 2
{5}
50 км 10/0
[]
-4.4 -7.4 80 -9 -9 по сезону 1018.1 1015.9
В 2
{5}
50 км 10/0
[]
-3.9 -7.1 78 -8 -8 холодно 1017.5 1015.4 -6.1 -3.7
ЮВ 3
{6}
50 км 1/0
[]
-3.5 -6.8 78 -9 -9 по сезону 1016.9 1014.7
В 2
{5}
50 км 4/0
[]
-3.1 -6.3 79 -7 -7 по сезону 1016.3 1014.1
В 3
{6}
50 км ясно -1.7 -5.2 77 -7 -7 прохладно 1015.9 1013.8
ЮВ 3
{7}
50 км 1/0
[]
-0.2 -4.3 74 -5 -5 по сезону 1015.4 1013.2
В 3
{5}
50 км ясно +0.2 -3.9 74 -4 -4 тепло 1014.7 1012.5
В 4
{7}
50 км ясно +2.0 -3.1 69 -3 -2 по сезону 1014.2 1012.1
ЮВ 5
{8}
50 км ясно +4.4 -2.1 63 -0 0 тепло 1013.2 1011.1
ЮВ 5
{9}
50 км 1/0
[]
+4.4 -2.1 63 -0 -0 тепло 1012.8 1010.7
ЮВ 5
{9}
50 км ясно +4.2 -1.9 64 -0 -0 по сезону 1012.4 1010.3
ЮВ 3
{7}
50 км 1/0
[]
+4.3 -1.8 64 +1 +1 тепло 1012.1 1010.0
В 5
{7}
50 км ясно +3.9 -1.9 66 -1 -1 тепло 1011.8 1009.7
ЮВ 6
{9}
50 км 9/9 1000 м
[]
+4.3 -1.6 65 -1 -1 по сезону 1012.0 1009.9 -3.9 +4.7
В 3
{6}
50 км слаб. ливневой дождь 8/8 1500 м
[]
+3.8 -0.3 75 0 0 тепло 1011.9 1009.7
В 6
{8}
50 км 10/10 600 м
[]
+3.6 -0.7 73 -2 -2 тепло 1011.6 1009.5
В 5
{9}
50 км слаб. ливневой дождь 10/10 1500 м
[]
+2.9 -0.5 78 -2 -2 по сезону 1011.1 1009.0
ЮВ 3
{6}
50 км слаб. ливневой дождь 9/9 1500 м
[]
+2.4 -0.1 84 -2 -2 по сезону 1010.8 1008.6
ЮВ 4
{6}
50 км в посл. час морось 9/0 2000 м
[]
+2.6 -0.2 82 -2 -2 тепло 1010.5 1008.4
В 4
{9}
40 км слаб. ливневой дождь 5/5 600 м
[]
+2.4 -0.2 83 -2 -2 по сезону 1010.0 1007.9
В 4
{5}
50 км в посл. час морось 10/0
[]
+2.6 -1.0 77 -2 -2 по сезону 1009.3 1007.2
В 6
{8}
50 км 6/0 2000 м
[]
+3.1 -1.8 70 -2 -2 тепло 1009.0 1006.9
В 5
{7}
50 км ясно +3.3 -1.8 69 -2 -2 по сезону 1008.5 1006.4
В 5
{8}
50 км 3/0
[]
+3.3 -1.9 69 -2 -2 по сезону 1008.1 1006.0
В 5
{7}
50 км 9/9 1000 м
[]
+3.0 -2.2 69 -2 -2 тепло 1008.0 1005.8
В 4
{8}
50 км 9/9 1000 м
[]
+3.3 -2.4 66 -1 -1 по сезону 1008.0 1005.9 +2.0 +4.3
В 3
{6}
50 км 10/0
[]
+4.1 -2.4 63 +1 +1 тепло 1008.4 1006.3
В 3
{5}
50 км 10/0 2000 м
[]
+3.7 -2.5 64 0 0 тепло 1009.0 1006.9
В 3
{5}
50 км 10/0
[]
+3.0 -2.3 68 -1 -1 по сезону 1009.6 1007.5
В 3
{4}
50 км 10/0
[]
+2.9 -2.0 70 -1 -1 тепло 1010.1 1008.0
В 3
{4}
50 км 10/0
[]
+3.7 -2.1 66 0 0 тепло 1010.6 1008.5
В 1
{6}
50 км 5/0
[]
+4.1 -1.6 66 +3 +3 тепло 1011.2 1009.1
В 2
{3}
50 км 10/0
[]
+3.5 -1.5 70 +1 +1 тепло 1012.0 1009.9
ЮВ 1
{2}
45 км 10/0
[]
+2.9 -1.7 72 +2 +2 тепло 1012.9 1010.8
В 3
{4}
50 км 10/10 1500 м
[]
+2.4 -1.8 74 -2 -2 по сезону 1013.7 1011.6
ЮВ 3
{6}
50 км 10/10 1000 м
[]
+2.3 -1.6 75 -2 -2 по сезону 1014.6 1012.5
В 2
{6}
50 км 10/10 600 м
[]
+2.3 -1.6 75 -1 -1 тепло 1015.2 1013.1
В 3
{6}
50 км в посл. час осадки 10/10 600 м
[]
+2.1 -1.5 77 -2 -2 по сезону 1016.0 1013.8 +2.1 +4.1
В 3
{5}
50 км 10/10 600 м
[]
+2.4 -1.6 75 -2 -2 по сезону 1016.7 1014.6
В 3
{4}
50 км слаб. ливневой дождь 9/9 600 м
[]
+1.9 -0.9 82 -2 -2 тепло 1017.4 1015.3
В 4
{5}
50 км 10/10 1000 м
[]
+1.9 -0.6 83 -3 -3 по сезону 1018.0 1015.9
ЮВ 3
{6}
50 км 10/10 1000 м
[]
+1.7 -0.6 85 -3 -3 по сезону 1018.5 1016.3
ЮВ 3
{6}
50 км 6/0
[]
+1.2 -0.9 86 -3 -3 тепло 1018.5 1016.3
ЮВ 3
{6}
50 км 5/5 1500 м
[]
+0.2 -1.2 90 -5 -5 по сезону 1018.9 1016.7
В 3
{4}
50 км 5/0
[]
-0.5 -1.5 93 -5 -5 по сезону 1019.4 1017.2
ЮВ 4
{5}
50 км 9/9 1500 м
[]
-0.6 -1.8 92 -6 -6 по сезону 1019.3 1017.2
ЮВ 4
{4}
50 км 9/0
[]
-0.2 -1.7 90 -6 -6 прохладно 1019.1 1017.0
ЮВ 4
{5}
50 км 6/6 1500 м
[]
-0.4 -2.3 87 -6 -6 по сезону 1019.1 1016.9
Местоположение метеостанции Тронхейм (Норвегия): широта 63.46 долгота 10.94 высота над уровнем моря 12 м.
В архиве по умолчанию представлена погода в Тронхейме за последнюю неделю. Архивные данные за месяц целиком и за предыдущие месяцы, начиная с января 2011 года, Вы можете получить, выбрав интересующий диапазон дат из раскрывающегося списка и нажав кнопку "Найти!".
*Определитесь, кто Вы:
Внимание! Время в таблицах - всемирное. Для получения местного времени необходимо прибавить поправку, которая равна 1 ч.
Смотрите также архив погоды в соседних городах и на ближайших метеорологических станциях:
Партнеры нашего сайта:      
Пояснения к столбцам:
  • Ветер - указаны скорость ветра в м/с - средняя за 10 мин, порывы в срок и между сроками (в фигурных скобках) и направление, откуда дует ветер: С - северный,
  • СВ - северо-восточный, В - восточный, ЮВ - юго-восточный, Ю - южный, ЮЗ - юго-западный, З - западный, СЗ - северо-западный.
  • Видимость - горизонтальная дальность видимости в метрах или километрах. При видимости от 1 до 10 км при отсутствии осадков обычно наблюдается дымка, при ухудшении видимости до 1 км и менее - туман. В сухую погоду видимость может ухудшаться дымом, пылью или мглою.
  • Явления - указаны атмосферные явления, наблюдавшиеся в срок или в последний час перед сроком; фигурными скобками обозначены явления, наблюдавшиеся между сроками (за 1-3 часа до срока); квадратными скобками обозначены град или гололедные отложения с указанием их диаметра в мм.
  • Облачность - указаны через наклонную черту общая и нижняя облачность в баллах и высота нижней границы облаков в метрах; квадратными скобками обозначены формы облаков: Ci - перистые, Cs - перисто-слоистые, Cc - перисто-кучевые, Ac - высококучевые, As - высокослоистые, Sc - слоисто-кучевые, Ns - слоисто-дождевые, Cu - кучевые, Cb - кучево-дождевые. Подробнее классификацию облаков см. в Атласе облаков (PDF).
  • T - Температура воздуха - температура, измеренная на высоте 2 м над землей.
  • Td - Температура точки росы - температура, при понижении до которой содержащийся в воздухе водяной пар достигнет насыщения.
  • f - Относительная влажность воздуха - влажноcть воздуха, измеренная на высоте 2 м над землей.
  • Te - Эффективная температура - температура, которую ощущает одетый по сезону человек в тени. Характеристика душности погоды. При расчете учитывается влияние влажности воздуха и скорости ветра на теплоощущения человека.
  • Tes - Эффективная температура на солнце - температура, которую ощущает человек, с поправкой на солнечный нагрев. Характеристика знойности погоды. Зависит от высоты солнца над горизонтом, облачности и скорости ветра. Ночью, в пасмурную погоду, а также при ветре 12 м/с и более поправка равна нулю.
  • P - Атмосферное давление - приведенное к уровню моря атмосферное давление.
  • Po - Атмосферное давление - измеренное на уровне метеостанции атмосферное давление.
  • Tmin - Минимальная температура - минимум температуры воздуха на высоте 2 м над землей.
  • Tmax - Максимальная температура - максимум температуры воздуха на высоте 2 м над землей.
  • R - Количество осадков - Количество выпавших осадков за период времени, мм. При наведении курсора мыши на число - период времени, за который выпало указанное количество осадков.
  • R24 - Количество осадков - Количество выпавших осадков за 24 часа, мм.
  • S - Снежный покров - Высота снежного покрова, см. При наведении курсора мыши на число - состояние снежного покрова и степень покрытия местности в баллах.